Location: Banios
(43.0451°N, 0.2335°E)
Time: 01:35:19
(UTC+00:00)

Vanguard 2 - Visible Passes

Search period start: 12 May 2021 00:00
Search period end: 22 May 2021 00:00
Orbit: 552 x 2938 km, 32.9° (Epoch: 11 May)

Date Brightness Start Highest point End Pass type
(mag) Time Alt. Az. Time Alt. Az. Time Alt. Az.
12 May 10.6 03:39:11 10° S 03:45:06 18° SE 03:52:44 10° E visible
13 May 10.5 03:55:12 10° S 04:02:05 24° SE 04:11:38 10° E visible
15 May 10.5 02:28:40 10° SE 02:29:15 10° SE 02:29:51 10° SE visible
16 May 10.3 02:42:02 10° SSE 02:46:11 15° SE 02:51:20 10° ESE visible
17 May 10.0 02:58:11 11° S 03:03:11 21° SE 03:10:18 10° E visible
18 May 9.9 03:14:52 11° SSW 03:20:19 26° SSE 03:28:43 10° E visible
19 May 9.8 03:31:32 10° SSW 03:37:33 32° SSE 03:46:52 10° E visible
20 May 10.0 01:46:48 12° SE 01:47:45 12° SE 01:50:18 10° ESE visible
20 May 9.6 03:48:33 10° SW 03:54:54 37° SSE 04:04:52 10° E visible
21 May 9.6 02:03:28 16° SSE 02:04:50 17° SE 02:09:34 10° ESE visible
